Tracking 31027 objects as of 19-Jul-2025
HD Live streaming from Space Station
objects crossing your sky now

CZ-4 DEB

Track CZ-4 DEB now!
10-day predictions


NORAD ID: 37609
Int'l Code: 1990-081CV
Perigee: 823.0 km
Apogee: 918.0 km
Inclination: 98.9 °
Period: 102.2 minutes
Semi major axis: 7241 km
RCS: 0.0032 m2 (small)
Launch date: September 3, 1990
Source: People's Republic of China (PRC)
Launch site: Taiyaun Space Center, China (TSC)

Note: This is SATELLITE DEBRIS
Your satellite tracking list
COSMOS 1408 DEB
Track 1 satellite(s)




NASA's NSSDC Master Catalog

Two Line Element Set (TLE):
1 37609U 90081CV  25198.17752726  .00000294  00000-0  19227-3 0  9994
2 37609  98.8808 178.1429 0065609 314.9911 105.8379 14.08831861105496
Source of the keplerian elements: AFSPC